FENGYUN 1C DEB, 29854

Orbit data source: Space-Track

FENGYUN 1C DEB, 29854 is space debris in SSO originally from a launch on Mon, 10 May 1999 UTC launched from the Taiyaun Space Center, China (TSC). Fengyun 1C debris stems from the Chinese weather satellite Fengyun-1C, which was intentionally destroyed by a Chinese anti-satellite missile in 2007. This event dramatically increased the amount of space debris, with thousands of trackable fragments posing hazards to satellites and human spaceflight. The Fengyun 1C debris cloud has become a focal point in discussions about space sustainability and the need for international regulations to prevent the creation of new debris.

Loading next visibility...
Identifier
29854, 1999-025EY
Orbit
SSO
Country
Flag of CNCN / PRC
Related business
Manufacturer
Unknown
Mission
Spacecraft
Bus & Motor
Unknown
Mass
Unknown
Launch date (UTC)
1999-05-10 (27 years ago)
Launch vehicle
Unknown
Launch site
Taiyaun Space Center, China (TSC)
Object type
Payload
Rocket body
Debris
Shape & HBR
Unknown shape, 0.1 m
Radar Cross Section
Medium (>0.1 m² and <1 m²)

Expand to show TLE details & history
Last TLE update: 11 hours ago

TLE from 11 hours ago
0 FENGYUN 1C DEB
1 29854U 99025EY  26254.42280604  .00000140  00000-0  15142-3 0  9999
2 29854  98.9637  47.3265 0146702  36.7560 347.2684 13.83548271991146
Epoch: 2026-09-11T10:08Z
TLE epoch observation values (Epoch: 2026-09-11T10:08:50.441Z)
Latitude
23.36295°
Longitude
-99.21632°
Altitude
849.284 km
Speed
7.483 km/s
True Right ascension
02h 53m 45s
True Declination
23° 14' 23"
Sunlit
Object was in full shadow at epoch
Visualization orbit readout
Latitude
Unknown
Longitude
Unknown
Altitude
Unknown
Speed
Unknown
Apparent Right ascension
Unknown
Apparent Declination
Unknown
Sunlit
N/A
Visualization observer readout
Local Sidereal Time
13:33:17
Azimuth
Unknown
Elevation
Unknown
Doppler factor
Unknown
Orbital elements
Apogee altitude
1,056.031 km
Perigee altitude
841.063 km
Semi-major axis
7,326.684 km
Eccentricity
0.01467
Inclination
98.9637°
RAAN
47.3265°
Arg. of periapsis
36.756°
True anomaly
346.89118°
Mean anomaly
347.2684°
Eccentric anomaly
347.08047°
Mean motion
3.46084 °/min
Orbital period
104.02 mins
BSTAR
0.00015142
Loading maneuver chart data...
Computing Atmospheric mass density...
Loading historical data...
Loading historical data...
Loading historical data...
Loading historical data...
Loading historical data...
Loading historical data...
Loading historical data...

Documentation

Showing up to 5 results
|